When you browse on this site, cookies collect data to enhance your experience and personalize the content and advertising you see.
Visit our Privacy Policy to learn more. By continuing to use the site, you agree to this use of cookies and data.

Hourly Weather Cayenne

Today, 10 August, Monday

Time Temperature Precipitation Wind Pressure Humidity
00:00 +26°C° 0 mm 3 mps 759 mmHg 97%
01:00 +26°C° 0.1 mm 3 mps 759 mmHg 97%
02:00 +26°C° 0.1 mm 3 mps 758 mmHg 97%
03:00 +26°C° 0.1 mm 3 mps 758 mmHg 96%
04:00 +25°C° 0 mm 3 mps 758 mmHg 97%
05:00 +25°C° 0 mm 2 mps 758 mmHg 97%
06:00 +25°C° 0 mm 2 mps 758 mmHg 97%
07:00 +27°C° 0.1 mm 2 mps 758 mmHg 91%
08:00 +28°C° 0.1 mm 2 mps 758 mmHg 85%
09:00 +29°C° 0.1 mm 2 mps 758 mmHg 80%
10:00 +31°C° 0.2 mm 3 mps 758 mmHg 72%
11:00 +33°C° 0.2 mm 3 mps 758 mmHg 65%
12:00 +35°C° 0.2 mm 3 mps 759 mmHg 58%
13:00 +34°C° 0.5 mm 4 mps 758 mmHg 65%
14:00 +33°C° 0.5 mm 4 mps 757 mmHg 71%
15:00 +32°C° 0.5 mm 4 mps 756 mmHg 78%
16:00 +30°C° 0.3 mm 4 mps 756 mmHg 80%
17:00 +29°C° 0.3 mm 4 mps 756 mmHg 83%
18:00 +29°C° 0.3 mm 4 mps 756 mmHg 86%
19:00 +28°C° 0 mm 4 mps 756 mmHg 88%
20:00 +27°C° 0 mm 4 mps 756 mmHg 89%
21:00 +27°C° 0 mm 4 mps 757 mmHg 91%
22:00 +27°C° 0 mm 4 mps 757 mmHg 92%
23:00 +26°C° 0 mm 3 mps 757 mmHg 93%

Tomorrow, 11 August, Tuesday

Time Temperature Precipitation Wind Pressure Humidity
00:00 +26°C° 0 mm 3 mps 758 mmHg 93%
01:00 +26°C° 0 mm 3 mps 757 mmHg 94%
02:00 +26°C° 0 mm 3 mps 757 mmHg 95%
03:00 +25°C° 0 mm 3 mps 756 mmHg 95%
04:00 +25°C° 0 mm 3 mps 756 mmHg 96%
05:00 +25°C° 0 mm 3 mps 756 mmHg 96%
06:00 +25°C° 0 mm 3 mps 756 mmHg 96%
07:00 +27°C° 0 mm 3 mps 757 mmHg 90%
08:00 +28°C° 0 mm 4 mps 757 mmHg 83%
09:00 +30°C° 0 mm 4 mps 757 mmHg 76%
10:00 +32°C° 0 mm 4 mps 757 mmHg 69%
11:00 +33°C° 0 mm 4 mps 757 mmHg 63%
12:00 +34°C° 0 mm 4 mps 757 mmHg 56%
13:00 +34°C° 0.1 mm 4 mps 757 mmHg 59%
14:00 +34°C° 0.1 mm 5 mps 756 mmHg 61%
15:00 +33°C° 0.1 mm 5 mps 755 mmHg 63%
16:00 +32°C° 0.1 mm 4 mps 755 mmHg 68%
17:00 +30°C° 0.1 mm 4 mps 755 mmHg 72%
18:00 +29°C° 0.1 mm 4 mps 755 mmHg 76%
19:00 +29°C° 0 mm 4 mps 755 mmHg 79%
20:00 +28°C° 0 mm 4 mps 756 mmHg 83%
21:00 +27°C° 0 mm 4 mps 756 mmHg 87%
22:00 +27°C° 0 mm 3 mps 757 mmHg 88%
23:00 +27°C° 0 mm 3 mps 757 mmHg 89%

Day after tomorrow, 12 August, Wednesday

Time Temperature Precipitation Wind Pressure Humidity
00:00 +26°C° 0 mm 3 mps 757 mmHg 91%
01:00 +26°C° 0.2 mm 3 mps 757 mmHg 92%
02:00 +26°C° 0.2 mm 3 mps 756 mmHg 94%
03:00 +26°C° 0.2 mm 3 mps 756 mmHg 95%
04:00 +26°C° 0.1 mm 3 mps 756 mmHg 95%
05:00 +26°C° 0.1 mm 2 mps 756 mmHg 96%
06:00 +25°C° 0.1 mm 2 mps 756 mmHg 96%
07:00 +27°C° 0 mm 3 mps 756 mmHg 89%
08:00 +29°C° 0 mm 3 mps 757 mmHg 82%
09:00 +30°C° 0 mm 4 mps 757 mmHg 75%
10:00 +32°C° 0 mm 4 mps 757 mmHg 69%
11:00 +33°C° 0 mm 4 mps 757 mmHg 63%
12:00 +34°C° 0 mm 4 mps 757 mmHg 57%
13:00 +34°C° 0 mm 4 mps 756 mmHg 56%
14:00 +34°C° 0 mm 4 mps 756 mmHg 55%
15:00 +34°C° 0 mm 4 mps 755 mmHg 54%
16:00 +33°C° 0 mm 4 mps 755 mmHg 61%
17:00 +31°C° 0 mm 3 mps 755 mmHg 67%
18:00 +30°C° 0 mm 3 mps 755 mmHg 74%
19:00 +29°C° 0 mm 3 mps 755 mmHg 79%
20:00 +28°C° 0 mm 3 mps 756 mmHg 84%
21:00 +27°C° 0 mm 3 mps 756 mmHg 89%
22:00 +27°C° 0 mm 3 mps 756 mmHg 90%
23:00 +27°C° 0 mm 3 mps 756 mmHg 90%

13 August, Thursday

Time Temperature Precipitation Wind Pressure Humidity
00:00 +27°C° 0 mm 3 mps 756 mmHg 91%
01:00 +26°C° 0 mm 3 mps 756 mmHg 92%
02:00 +26°C° 0 mm 3 mps 755 mmHg 93%
03:00 +26°C° 0 mm 3 mps 755 mmHg 94%
04:00 +26°C° 0 mm 3 mps 755 mmHg 95%
05:00 +26°C° 0 mm 3 mps 755 mmHg 96%
06:00 +25°C° 0 mm 3 mps 755 mmHg 97%
07:00 +27°C° 0 mm 3 mps 756 mmHg 89%
08:00 +29°C° 0 mm 3 mps 756 mmHg 82%
09:00 +30°C° 0 mm 4 mps 757 mmHg 74%
10:00 +32°C° 0 mm 4 mps 757 mmHg 69%
11:00 +34°C° 0 mm 4 mps 757 mmHg 63%
12:00 +35°C° 0 mm 4 mps 756 mmHg 57%
13:00 +34°C° 0.2 mm 4 mps 756 mmHg 61%
14:00 +34°C° 0.2 mm 4 mps 755 mmHg 64%
15:00 +34°C° 0.2 mm 4 mps 754 mmHg 68%
16:00 +33°C° 0.3 mm 4 mps 754 mmHg 73%
17:00 +30°C° 0.3 mm 4 mps 754 mmHg 78%
18:00 +29°C° 0.3 mm 4 mps 754 mmHg 83%
19:00 +29°C° 0 mm 4 mps 755 mmHg 85%
20:00 +28°C° 0 mm 4 mps 755 mmHg 87%
21:00 +27°C° 0 mm 4 mps 756 mmHg 89%
22:00 +27°C° 0 mm 4 mps 756 mmHg 89%
23:00 +27°C° 0 mm 4 mps 756 mmHg 89%

14 August, Friday

Time Temperature Precipitation Wind Pressure Humidity
00:00 +27°C° 0 mm 4 mps 756 mmHg 90%
01:00 +27°C° 0 mm 4 mps 756 mmHg 90%
02:00 +27°C° 0 mm 4 mps 755 mmHg 90%
03:00 +27°C° 0 mm 5 mps 755 mmHg 91%
04:00 +26°C° 0 mm 4 mps 755 mmHg 91%
05:00 +26°C° 0 mm 4 mps 755 mmHg 92%
06:00 +26°C° 0 mm 4 mps 755 mmHg 93%
07:00 +28°C° 0 mm 4 mps 755 mmHg 86%
08:00 +29°C° 0 mm 5 mps 756 mmHg 79%
09:00 +32°C° 0 mm 5 mps 756 mmHg 72%
10:00 +33°C° 0 mm 5 mps 756 mmHg 67%
11:00 +33°C° 0 mm 5 mps 756 mmHg 63%
12:00 +34°C° 0 mm 6 mps 756 mmHg 59%
13:00 +34°C° 0 mm 6 mps 755 mmHg 58%
14:00 +34°C° 0 mm 5 mps 755 mmHg 57%
15:00 +34°C° 0 mm 5 mps 754 mmHg 56%
16:00 +33°C° 0 mm 5 mps 754 mmHg 62%
17:00 +32°C° 0 mm 5 mps 754 mmHg 67%
18:00 +30°C° 0 mm 4 mps 754 mmHg 72%
19:00 +29°C° 0 mm 4 mps 754 mmHg 76%
20:00 +28°C° 0 mm 4 mps 755 mmHg 80%
21:00 +28°C° 0 mm 4 mps 756 mmHg 84%
22:00 +27°C° 0.1 mm 4 mps 756 mmHg 86%
23:00 +27°C° 0.1 mm 4 mps 756 mmHg 88%

15 August, Saturday

Time Temperature Precipitation Wind Pressure Humidity
00:00 +26°C° 0.1 mm 4 mps 756 mmHg 91%
01:00 +26°C° 0.1 mm 3 mps 755 mmHg 92%
02:00 +26°C° 0.1 mm 3 mps 755 mmHg 93%
03:00 +25°C° 0.1 mm 3 mps 754 mmHg 94%
04:00 +25°C° 0 mm 3 mps 754 mmHg 94%
05:00 +25°C° 0 mm 3 mps 755 mmHg 94%
06:00 +25°C° 0 mm 3 mps 755 mmHg 94%
07:00 +27°C° 0.1 mm 3 mps 755 mmHg 87%
08:00 +29°C° 0.1 mm 4 mps 755 mmHg 80%
09:00 +30°C° 0.1 mm 4 mps 756 mmHg 73%
10:00 +32°C° 0.3 mm 4 mps 756 mmHg 69%
11:00 +33°C° 0.3 mm 4 mps 756 mmHg 66%
12:00 +34°C° 0.3 mm 4 mps 755 mmHg 62%
13:00 +34°C° 0.4 mm 5 mps 755 mmHg 61%
14:00 +34°C° 0.4 mm 5 mps 754 mmHg 60%
15:00 +34°C° 0.4 mm 5 mps 754 mmHg 59%
16:00 +33°C° 0 mm 5 mps 754 mmHg 62%
17:00 +32°C° 0 mm 5 mps 753 mmHg 66%
18:00 +30°C° 0 mm 5 mps 753 mmHg 70%
19:00 +29°C° 0 mm 5 mps 754 mmHg 74%
20:00 +28°C° 0 mm 5 mps 754 mmHg 78%
21:00 +28°C° 0 mm 5 mps 755 mmHg 82%
22:00 +27°C° 0 mm 4 mps 755 mmHg 85%
23:00 +26°C° 0 mm 4 mps 755 mmHg 88%
Show more